| time (UTC) | temp F | wind direction | speed MPH | gust MPH | rain 1hr in | rain 24hr in | rain mn in | humidity % | barometer mb |
| 20260504220150 | 62 | 193 | 23.0 | 34.0 | 0.00 | 0.00 | 0.00 | 28 | 1008.8 |
| 20260504215151 | 62 | 186 | 29.0 | 38.0 | 0.00 | 0.00 | 0.00 | 28 | 1008.8 |
| 20260504214150 | 62 | 178 | 18.0 | 27.0 | 0.00 | 0.00 | 0.00 | 27 | 1008.9 |
| 20260504213150 | 62 | 210 | 7.0 | 27.0 | 0.00 | 0.00 | 0.00 | 28 | 1009.1 |
| 20260504212150 | 62 | 140 | 14.0 | 33.0 | 0.00 | 0.00 | 0.00 | 29 | 1009.1 |
| 20260504211150 | 61 | 155 | 17.0 | 33.0 | 0.00 | 0.00 | 0.00 | 28 | 1009.4 |
| 20260504210151 | 61 | 191 | 26.0 | 37.0 | 0.00 | 0.00 | 0.00 | 28 | 1009.3 |
| 20260504205151 | 62 | 137 | 17.0 | 29.0 | 0.00 | 0.00 | 0.00 | 29 | 1009.2 |
| 20260504204150 | 61 | 164 | 13.0 | 28.0 | 0.00 | 0.00 | 0.00 | 28 | 1009.2 |
| 20260504203150 | 61 | 165 | 20.0 | 33.0 | 0.00 | 0.00 | 0.00 | 29 | 1009.2 |
| 20260504202151 | 61 | 169 | 10.0 | 30.0 | 0.00 | 0.00 | 0.00 | 31 | 1009.2 |
| 20260504201150 | 61 | 151 | 18.0 | 31.0 | 0.00 | 0.00 | 0.00 | 32 | 1009.1 |
| 20260504200150 | 61 | 142 | 15.0 | 37.0 | 0.00 | 0.00 | 0.00 | 33 | 1009.1 |
| 20260504195150 | 61 | 144 | 20.0 | 31.0 | 0.00 | 0.00 | 0.00 | 32 | 1008.9 |
| 20260504194150 | 62 | 156 | 17.0 | 35.0 | 0.00 | 0.00 | 0.00 | 32 | 1009.3 |
| 20260504193152 | 62 | 140 | 15.0 | 28.0 | 0.00 | 0.00 | 0.00 | 36 | 1009.1 |
| 20260504192151 | 62 | 136 | 18.0 | 28.0 | 0.00 | 0.00 | 0.00 | 36 | 1009.2 |
| 20260504191151 | 60 | 133 | 15.0 | 34.0 | 0.00 | 0.00 | 0.00 | 37 | 1009.4 |
| 20260504190152 | 61 | 128 | 17.0 | 33.0 | 0.00 | 0.00 | 0.00 | 38 | 1009.4 |
| 20260504185151 | 61 | 183 | 18.0 | 31.0 | 0.00 | 0.00 | 0.00 | 37 | 1009.4 |
| 20260504183151 | 62 | 141 | 7.0 | 31.0 | 0.00 | 0.00 | 0.00 | 42 | 1009.5 |
| 20260504182151 | 61 | 159 | 13.0 | 28.0 | 0.00 | 0.00 | 0.00 | 40 | 1009.5 |
| 20260504181151 | 60 | 172 | 5.0 | 29.0 | 0.00 | 0.00 | 0.00 | 46 | 1009.6 |
| 20260504180151 | 60 | 177 | 23.0 | 36.0 | 0.00 | 0.00 | 0.00 | 41 | 1010.4 |
| 20260504175151 | 61 | 194 | 14.0 | 27.0 | 0.00 | 0.00 | 0.00 | 41 | 1010.5 |
| 20260504173152 | 61 | 159 | 10.0 | 22.0 | 0.00 | 0.00 | 0.00 | 46 | 1010.6 |
| 20260504171153 | 58 | 139 | 12.0 | 29.0 | 0.00 | 0.00 | 0.00 | 46 | 1010.6 |
| 20260504170151 | 58 | 147 | 14.0 | 29.0 | 0.00 | 0.00 | 0.00 | 46 | 1010.5 |
| 20260504160152 | 58 | 143 | 13.0 | 22.0 | 0.00 | 0.00 | 0.00 | 44 | 1010.5 |
| 20260504150151 | 57 | 107 | 9.0 | 13.0 | 0.00 | 0.00 | 0.00 | 46 | 1010.3 |
| 20260504141151 | 54 | 0 | 0.0 | 1.0 | 0.00 | 0.00 | 0.00 | 53 | 1010.4 |
| 20260504140152 | 54 | 0 | 0.0 | 2.0 | 0.00 | 0.00 | 0.00 | 54 | 1010.5 |
| 20260504130152 | 54 | 0 | 0.0 | 3.0 | 0.00 | 0.00 | 0.00 | 50 | 1009.7 |
| 20260504120151 | 56 | 151 | 1.0 | 7.0 | 0.00 | 0.00 | 0.00 | 47 | 1009.5 |
| 20260504110152 | 57 | 159 | 1.0 | 3.0 | 0.00 | 0.00 | 0.00 | 45 | 1009.7 |
| 20260504100152 | 55 | 192 | 1.0 | 4.0 | 0.00 | 0.00 | 0.00 | 48 | 1009.6 |
| 20260504081153 | 57 | 171 | 3.0 | 9.0 | 0.00 | 0.00 | 0.00 | 43 | 1009.8 |
| 20260504080152 | 58 | 160 | 1.0 | 7.0 | 0.00 | 0.00 | 0.00 | 41 | 1009.9 |
| 20260504070153 | 58 | 212 | 1.0 | 9.0 | 0.00 | 0.00 | 0.00 | 41 | 1010.7 |
| 20260504060152 | 60 | 79 | 11.0 | 20.0 | 0.00 | 0.00 | 0.00 | 39 | 1010.3 |
| 20260504050152 | 62 | 125 | 6.0 | 14.0 | 0.00 | 0.00 | 0.00 | 35 | 1011.3 |
| 20260504045153 | 61 | 242 | 13.0 | 18.0 | 0.00 | 0.00 | 0.00 | 32 | 1011.3 |
| 20260504044156 | 61 | 246 | 12.0 | 15.0 | 0.00 | 0.00 | 0.00 | 35 | 1011.2 |
| 20260504043153 | 61 | 252 | 5.0 | 11.0 | 0.00 | 0.00 | 0.00 | 36 | 1010.8 |
| 20260504042154 | 60 | 260 | 2.0 | 8.0 | 0.00 | 0.00 | 0.00 | 37 | 1010.6 |
| 20260504041153 | 58 | 289 | 1.0 | 6.0 | 0.00 | 0.00 | 0.00 | 40 | 1010.3 |
| 20260504040153 | 59 | 345 | 3.0 | 12.0 | 0.00 | 0.00 | 0.00 | 42 | 1010.2 |
| 20260504035153 | 60 | 254 | 5.0 | 13.0 | 0.00 | 0.00 | 0.00 | 38 | 1010.1 |
| 20260504034153 | 59 | 232 | 3.0 | 17.0 | 0.00 | 0.00 | 0.00 | 41 | 1009.9 |
| 20260504033153 | 58 | 0 | 0.0 | 15.0 | 0.00 | 0.00 | 0.00 | 43 | 1009.9 |
| 20260504032154 | 57 | 260 | 10.0 | 18.0 | 0.00 | 0.00 | 0.00 | 47 | 1009.9 |
| 20260504025153 | 57 | 255 | 5.0 | 8.0 | 0.00 | 0.00 | 0.00 | 47 | 1009.9 |
| 20260504024153 | 57 | 253 | 1.0 | 11.0 | 0.00 | 0.00 | 0.00 | 48 | 1009.8 |
| 20260504023153 | 57 | 66 | 10.0 | 22.0 | 0.00 | 0.00 | 0.00 | 49 | 1009.4 |
| 20260504022153 | 57 | 225 | 7.0 | 23.0 | 0.00 | 0.00 | 0.00 | 55 | 1010.4 |
| 20260504021153 | 59 | 197 | 19.0 | 35.0 | 0.00 | 0.00 | 0.00 | 51 | 1010.9 |
| 20260504020153 | 61 | 196 | 21.0 | 32.0 | 0.00 | 0.00 | 0.00 | 41 | 1010.8 |
| 20260504015153 | 63 | 139 | 16.0 | 31.0 | 0.00 | 0.00 | 0.00 | 34 | 1010.6 |
| 20260504014153 | 63 | 222 | 16.0 | 29.0 | 0.00 | 0.00 | 0.00 | 34 | 1010.0 |
| 20260504013153 | 64 | 238 | 2.0 | 20.0 | 0.00 | 0.00 | 0.00 | 31 | 1010.1 |
| 20260504012153 | 65 | 235 | 21.0 | 30.0 | 0.00 | 0.00 | 0.00 | 30 | 1010.0 |
| 20260504011153 | 66 | 218 | 12.0 | 34.0 | 0.00 | 0.00 | 0.00 | 27 | 1009.6 |
| 20260504010153 | 67 | 134 | 17.0 | 26.0 | 0.00 | 0.00 | 0.00 | 26 | 1009.0 |
| 20260504005153 | 67 | 138 | 18.0 | 31.0 | 0.00 | 0.00 | 0.00 | 25 | 1009.0 |
| 20260504004153 | 69 | 155 | 17.0 | 34.0 | 0.00 | 0.00 | 0.00 | 24 | 1008.7 |
| 20260504003153 | 69 | 146 | 13.0 | 21.0 | 0.00 | 0.00 | 0.00 | 22 | 1008.7 |
| 20260504002153 | 70 | 138 | 8.0 | 30.0 | 0.00 | 0.00 | 0.00 | 22 | 1008.7 |
| 20260504001154 | 71 | 153 | 18.0 | 31.0 | 0.00 | 0.00 | 0.00 | 21 | 1008.6 |
| 20260504000153 | 71 | 211 | 5.0 | 27.0 | 0.00 | 0.00 | 0.00 | 21 | 1008.7 |
| 20260503234153 | 74 | 204 | 3.0 | 16.0 | 0.00 | 0.00 | 0.00 | 20 | 1008.9 |
| 20260503233153 | 73 | 0 | 0.0 | 17.0 | 0.00 | 0.00 | 0.00 | 20 | 1009.0 |
| 20260503232153 | 72 | 167 | 11.0 | 21.0 | 0.00 | 0.00 | 0.00 | 20 | 1009.1 |
| 20260503231154 | 71 | 213 | 6.0 | 17.0 | 0.00 | 0.00 | 0.00 | 19 | 1009.3 |
| 20260503230153 | 70 | 222 | 5.0 | 16.0 | 0.00 | 0.00 | 0.00 | 18 | 1009.3 |
| 20260503225154 | 71 | 206 | 8.0 | 17.0 | 0.00 | 0.00 | 0.00 | 19 | 1009.4 |
| 20260503224153 | 72 | 195 | 13.0 | 24.0 | 0.00 | 0.00 | 0.00 | 17 | 1009.3 |
| 20260503223154 | 74 | 205 | 10.0 | 17.0 | 0.00 | 0.00 | 0.00 | 16 | 1009.6 |
| 20260503222153 | 73 | 210 | 7.0 | 16.0 | 0.00 | 0.00 | 0.00 | 16 | 1009.8 |
| 20260503221153 | 73 | 197 | 16.0 | 32.0 | 0.00 | 0.00 | 0.00 | 16 | 1009.9 |